Location: Bouillancy
(49.1149°N, 2.9308°E)
Time: 22:47:33
(UTC+00:00)

Cosmos 2279 Rocket - Pass Details

Date: 30 September 2020
Orbit: 964 x 979 km, 82.9° (Epoch: 25 October)

Event Time Altitude Azimuth Distance (km) Brightness Sun altitude
Rises 19:46:42 0° 192° (SSW) 3,666 6.9 -23.0°
Reaches altitude 10° 19:49:13 10° 194° (SSW) 2,724 6.2 -23.4°
Maximum altitude 19:55:28 76° 280° (W) 1,014 4.1 -24.3°
Drops below altitude 10° 20:01:46 10° 7° (N) 2,742 6.6 -25.2°
Sets 20:04:18 0° 9° (N) 3,693 7.3 -25.6°
